GFSNIL_sfc_rhum_000.txt.gz
RH
39 42 38 36 37 36 35 35 33 32 31 30 31 34 35 42 45 38 48 45 48 53
36 35 35 33 33 34 32 26 29 29 30 31 31 33 34 42 40 42 46 48 50 52
32 31 30 30 28 28 28 27 28 29 30 32 34 34 36 42 42 42 46 40 45 48
30 29 28 27 27 27 27 28 29 30 33 34 36 36 39 40 41 41 44 46 51 56
29 28 28 28 28 28 29 30 31 33 36 36 38 40 42 44 44 46 47 48 59 66
30 30 30 30 30 31 31 33 34 35 38 40 43 45 44 46 46 46 48 55 63 67
32 32 32 33 33 33 34 35 36 38 40 43 44 43 44 44 48 51 53 61 67 67
36 35 36 36 35 36 37 37 38 39 42 44 40 30 44 45 51 56 59 63 64 62
38 36 38 36 36 36 37 37 39 44 46 48 34 46 46 44 43 49 55 63 65 62
37 37 36 34 34 36 38 42 47 48 49 48 47 46 47 50 44 50 57 66 66 61
36 35 36 36 37 38 40 46 50 51 51 51 40 47 50 56 55 62 64 64 65 69
35 35 37 38 38 38 45 52 53 51 50 50 49 48 53 56 60 61 64 62 65 67
36 36 36 37 40 45 53 53 52 47 47 50 46 51 55 55 58 66 64 66 67 69
35 35 36 42 48 51 52 51 52 51 52 49 51 59 57 58 56 62 64 71 77 72

GFSNIL_sfc_rhum_003.txt.gz
RH
47 49 47 45 43 38 36 36 34 32 31 31 32 35 38 45 46 41 49 46 49 54
42 40 39 36 35 36 35 29 30 30 30 32 34 36 38 45 43 45 48 50 51 51
35 34 34 34 32 31 29 28 29 30 33 35 37 38 40 45 46 46 48 44 49 52
33 31 29 28 29 28 29 29 30 33 36 38 39 40 44 45 43 46 48 50 54 59
31 29 29 29 29 30 30 32 34 36 38 40 42 45 46 47 48 50 52 52 60 66
31 31 31 32 32 33 34 36 37 39 42 43 47 47 47 47 49 52 53 57 62 66
33 34 34 35 36 36 37 39 40 41 43 47 47 45 44 51 54 56 55 60 66 69
37 37 39 39 38 38 40 39 42 44 47 48 43 32 51 54 55 56 56 59 62 62
40 40 42 39 38 39 40 42 47 50 50 51 36 48 48 51 62 58 59 64 64 67
41 41 40 37 37 38 42 49 52 52 52 52 52 47 49 53 62 66 69 66 67 63
40 38 38 38 39 43 47 52 54 52 53 55 45 50 51 55 66 70 71 69 69 68
38 39 40 41 44 47 53 55 53 54 54 54 56 53 55 57 68 69 70 67 68 68
39 39 41 45 51 53 55 51 52 51 54 57 55 58 57 56 62 73 69 70 70 73
39 41 48 52 54 54 56 56 60 58 60 60 60 68 59 59 58 63 66 68 61 68

GFSNIL_sfc_rhum_006.txt.gz
RH
49 46 47 49 45 40 38 39 35 34 32 33 35 38 40 48 48 45 52 48 50 55
53 48 47 43 38 40 38 30 32 32 33 35 37 39 41 48 46 49 50 52 53 54
43 41 38 37 36 34 31 31 31 33 35 37 39 41 44 48 49 48 52 49 52 54
36 35 33 32 32 31 31 31 34 36 38 40 42 45 47 47 45 51 53 54 57 58
31 30 31 32 32 32 33 36 37 39 40 43 46 48 47 47 51 55 57 57 62 65
32 32 33 34 35 36 36 38 39 41 44 47 49 46 45 50 55 58 59 61 64 65
35 36 36 38 38 39 39 40 43 46 47 48 47 44 44 56 60 61 59 61 65 67
40 41 42 42 42 42 42 44 48 48 49 50 44 32 55 60 64 65 65 66 64 64
45 45 45 42 42 41 45 48 50 51 52 52 38 50 50 52 69 66 66 72 69 70
46 44 43 40 39 43 48 52 54 54 54 54 54 51 52 53 65 68 73 69 68 65
44 42 41 40 43 48 52 55 56 55 56 57 48 55 54 56 67 72 73 70 72 74
43 42 42 45 50 54 56 57 58 55 57 60 62 58 58 59 70 69 71 69 72 74
41 42 47 52 54 56 57 53 53 54 60 63 64 63 61 59 67 75 69 69 74 68
44 51 53 56 58 59 61 60 66 64 68 68 68 72 62 61 62 65 63 61 69 71

GFSNIL_sfc_rhum_009.txt.gz
RH
34 35 33 35 32 29 28 29 28 28 26 27 29 31 33 36 37 36 38 38 38 38
37 37 39 35 32 31 30 26 27 27 28 29 30 31 33 34 33 36 38 38 39 40
38 37 36 31 31 29 26 26 27 28 29 30 31 32 33 34 35 35 38 37 40 40
37 34 29 28 26 25 25 26 27 29 30 31 32 32 31 32 35 40 41 42 45 44
31 29 27 26 26 25 26 28 30 30 32 32 34 33 31 36 41 43 45 45 49 49
28 27 26 27 27 29 30 31 32 34 34 34 35 32 31 37 43 45 46 47 47 47
28 28 28 30 31 31 31 34 35 35 36 37 34 33 33 43 46 48 49 50 49 48
32 33 34 35 34 35 36 37 37 36 37 37 34 29 44 48 50 53 52 50 48 49
38 37 38 36 36 39 40 39 38 39 38 39 33 50 52 50 48 52 53 52 49 51
38 38 37 35 37 40 40 39 40 38 39 40 41 52 54 54 48 53 53 55 54 54
37 36 36 37 39 40 40 40 39 40 41 44 42 57 55 58 51 53 54 57 55 57
36 36 38 40 41 41 40 40 42 41 45 46 50 58 60 57 52 54 54 54 55 58
35 38 41 42 41 43 42 42 42 45 48 56 50 62 61 56 52 56 55 54 53 62
41 42 42 42 43 44 46 47 49 51 51 52 54 54 61 61 53 56 58 55 58 55

GFSNIL_sfc_rhum_012.txt.gz
RH
39 40 31 29 26 24 24 23 24 22 20 21 22 24 26 27 28 29 29 33 32 31
36 37 32 30 26 24 24 22 22 22 21 22 22 23 25 25 25 27 30 30 32 32
36 31 32 27 26 25 21 20 22 21 22 22 23 23 25 25 26 26 28 30 33 33
36 32 28 25 24 22 20 20 20 21 21 22 22 23 23 24 26 30 32 34 38 39
33 28 25 23 21 20 20 20 20 21 22 23 24 23 22 25 28 32 35 36 42 42
28 26 23 22 20 21 21 22 22 24 24 24 26 24 22 25 29 33 36 38 39 38
26 23 22 22 22 23 22 24 25 25 26 27 25 26 26 32 35 36 38 41 41 39
25 24 25 25 25 25 26 27 27 27 27 27 27 23 38 39 39 39 39 38 38 38
29 28 29 28 28 30 31 29 29 29 28 30 24 47 52 50 41 38 39 39 37 38
29 31 30 28 29 32 31 30 29 28 28 29 30 50 54 55 42 40 40 45 46 43
29 29 28 28 30 30 28 28 28 29 29 31 30 54 56 58 42 40 41 45 43 43
28 29 30 31 30 29 28 28 28 30 31 31 31 48 58 56 42 39 41 40 40 44
26 30 31 32 29 31 29 31 30 32 31 39 33 43 59 54 43 42 40 39 40 52
29 29 29 29 29 30 30 31 29 31 30 33 36 39 56 60 49 45 45 44 47 45

GFSNIL_sfc_rhum_015.txt.gz
RH
48 48 41 36 33 31 30 28 28 26 24 24 25 26 27 30 32 30 33 36 37 36
47 40 38 33 30 29 28 26 25 24 24 23 24 24 25 27 26 28 31 34 36 37
42 36 34 31 30 29 26 24 25 24 24 24 23 23 24 26 25 26 30 32 33 35
44 39 32 32 28 27 23 23 23 23 23 22 22 22 23 23 25 28 30 33 40 39
38 33 33 28 25 22 22 21 22 22 22 22 23 22 21 23 24 28 32 34 45 46
33 31 29 25 23 22 22 22 22 23 24 23 25 24 22 22 25 28 32 36 37 39
34 29 26 24 24 24 23 24 24 25 25 26 24 25 25 29 32 35 38 38 40 38
32 28 27 27 26 26 27 26 26 26 26 26 26 23 38 40 40 39 37 37 35 37
30 30 31 29 30 31 30 29 28 28 27 28 23 46 51 52 46 40 38 38 36 38
31 32 33 32 31 33 31 29 29 27 27 27 28 46 52 55 47 43 41 47 49 46
33 34 33 32 32 30 28 28 27 27 27 30 30 46 52 57 47 39 40 47 43 43
32 32 33 33 30 28 27 27 27 29 30 29 28 40 51 56 46 41 41 39 39 41
29 32 33 32 29 29 28 30 31 32 29 31 32 34 48 53 47 47 43 42 41 47
30 30 28 28 28 27 30 34 29 31 27 28 30 35 44 53 52 50 51 50 50 50

GFSNIL_sfc_rhum_018.txt.gz
RH
58 56 57 55 47 37 34 34 33 34 41 40 39 40 42 46 46 41 46 44 48 52
57 57 55 59 37 33 33 31 30 32 37 36 36 36 36 43 40 39 42 45 48 52
53 53 48 38 33 32 30 30 30 33 36 35 33 32 34 38 34 35 43 44 44 49
49 40 34 32 30 29 27 28 29 34 34 33 32 30 32 32 32 36 40 44 49 51
41 36 34 31 29 27 27 27 28 33 32 31 30 29 28 30 32 35 41 45 51 57
37 33 33 30 27 28 27 28 31 32 32 32 33 30 29 30 33 37 43 47 51 52
38 35 30 29 27 30 27 29 35 35 35 34 31 30 32 39 44 50 50 52 53 53
34 33 31 29 29 30 31 35 35 34 34 33 31 33 52 56 56 56 53 50 47 48
34 36 35 34 35 35 38 39 35 34 35 35 26 47 50 54 60 59 56 55 52 53
56 62 53 40 40 40 38 36 35 34 33 32 48 51 47 52 61 64 63 62 62 57
80 70 48 38 36 35 36 36 36 34 33 39 42 46 48 53 64 61 58 59 56 58
65 58 45 40 38 35 34 34 34 36 36 36 45 43 44 56 65 62 62 54 54 55
52 38 39 36 38 36 34 36 38 39 39 43 42 35 41 51 63 72 66 64 59 55
37 34 33 33 33 39 44 42 41 38 37 38 40 43 38 45 61 69 70 70 67 68

GFSNIL_sfc_rhum_021.txt.gz
RH
72 79 77 68 52 47 41 40 42 39 38 40 41 48 48 52 52 46 51 47 51 54
68 75 71 66 49 40 39 42 37 35 38 36 38 44 45 48 40 42 48 48 51 55
70 70 63 51 42 43 40 34 37 35 34 35 35 40 43 42 40 39 46 49 48 51
66 57 48 45 43 44 36 35 35 36 37 36 35 37 40 40 39 38 41 46 50 52
54 48 45 40 37 34 36 36 35 35 33 31 36 33 34 33 36 38 41 44 53 56
48 46 37 35 34 35 34 32 34 30 32 32 36 33 32 33 36 39 45 50 53 54
47 39 36 36 33 35 34 33 30 31 34 38 35 34 42 46 50 53 54 54 55 56
43 42 40 42 40 39 41 36 33 32 34 38 39 38 53 56 58 58 57 54 51 52
44 45 50 50 49 50 36 34 34 35 39 35 37 54 55 58 61 59 61 62 60 58
55 63 67 59 53 48 44 37 36 36 36 45 54 54 54 55 60 66 68 65 64 60
76 79 77 80 83 76 63 57 52 37 39 49 52 54 52 57 68 67 63 64 62 62
88 90 90 90 87 80 72 48 38 42 39 47 57 47 49 59 66 66 69 62 64 65
87 83 76 66 48 39 40 39 40 42 43 44 44 40 40 51 65 73 72 69 67 65
67 52 47 40 38 38 40 42 43 42 44 44 45 44 36 40 61 66 71 74 70 69

GFSNIL_sfc_rhum_024.txt.gz
RH
90 86 87 82 76 66 57 65 62 51 45 46 45 43 45 49 50 49 54 49 54 57
85 90 88 83 73 66 62 56 50 45 48 50 49 45 42 47 44 48 53 52 54 57
86 88 87 81 72 64 54 48 43 47 49 49 47 42 42 41 40 45 52 54 53 54
91 86 84 76 67 56 47 41 44 45 48 48 44 40 38 39 38 42 46 52 51 51
86 82 78 69 59 46 42 42 44 43 44 48 44 41 40 38 36 42 45 47 55 56
81 76 71 63 52 42 44 45 45 42 43 34 36 32 32 34 39 43 46 49 49 51
76 72 57 52 46 44 46 49 52 55 52 43 39 34 38 50 56 56 54 51 52 54
59 51 46 47 48 48 49 49 49 59 54 54 54 51 56 60 59 54 52 52 51 54
51 52 59 60 58 60 64 66 64 55 48 54 51 61 60 57 57 55 57 57 60 61
65 65 66 63 66 67 74 72 64 60 47 57 59 57 58 60 57 58 62 64 65 58
77 75 78 84 89 89 82 78 83 79 74 77 65 59 56 58 63 67 69 67 68 70
85 90 91 94 97 94 95 98 93 76 64 64 55 51 53 62 68 67 71 68 70 73
88 91 94 94 94 95 90 70 47 41 39 49 54 48 42 63 68 69 69 73 70 65
89 87 85 78 68 54 44 41 41 45 47 48 48 50 36 39 62 63 70 72 71 70

GFSNIL_sfc_rhum_027.txt.gz
RH
96 96 93 93 91 85 77 71 70 69 66 66 60 53 49 52 53 45 49 45 49 59
98 97 95 92 89 84 80 73 70 68 62 59 55 54 53 54 50 44 51 50 51 61
99 95 95 95 89 77 75 69 65 62 61 56 56 52 50 48 42 46 50 52 50 55
97 96 95 89 81 73 72 68 64 60 57 51 51 45 48 54 49 50 48 50 53 51
97 96 95 91 79 71 68 63 60 54 48 48 49 52 51 49 51 52 51 56 61 56
97 96 95 90 79 69 66 63 58 49 50 52 52 54 58 63 55 47 47 46 49 52
95 94 86 72 65 61 60 57 54 49 53 55 59 65 71 69 63 62 53 54 53 52
80 72 69 62 62 60 65 67 66 70 74 74 73 66 71 66 62 56 52 52 50 54
63 62 64 63 63 66 65 70 75 80 78 82 79 85 80 65 56 54 56 58 56 60
71 71 70 69 73 78 82 82 85 86 88 86 78 72 70 63 60 57 58 59 61 56
80 86 88 88 89 89 90 90 93 99 99 99 97 93 96 78 62 61 65 64 69 72
91 92 92 96 97 92 94 96 98 98 99 99 99 83 77 62 62 62 65 66 72 75
93 96 98 94 96 97 97 100 95 96 94 91 70 56 52 63 64 68 66 73 68 65
93 93 93 95 96 93 88 80 59 48 52 47 48 51 38 42 64 63 69 70 69 68

GFSNIL_sfc_rhum_030.txt.gz
RH
95 98 96 95 95 95 91 87 82 74 74 72 72 72 64 69 66 55 62 47 48 55
97 99 98 96 94 94 92 87 82 79 76 77 71 66 62 60 58 60 65 59 51 54
94 96 98 97 97 96 94 85 84 78 76 78 69 61 54 50 49 50 62 61 53 53
97 96 98 98 97 94 87 83 79 74 74 71 66 55 50 49 48 50 53 56 55 54
90 98 98 93 86 88 84 76 74 71 69 62 54 47 48 49 60 66 66 67 72 66
95 96 95 89 78 73 72 72 69 63 57 55 55 54 55 59 66 69 76 75 75 60
93 93 89 79 71 68 66 65 61 57 57 60 62 67 74 76 78 79 77 78 73 66
86 80 74 68 65 62 62 63 63 68 71 74 76 77 84 84 83 84 79 73 65 63
72 70 72 72 73 73 72 75 78 79 81 84 82 83 80 76 78 78 82 90 84 69
73 75 76 75 78 83 86 87 89 90 89 91 90 86 88 89 92 95 94 85 67 57
82 86 87 89 90 91 91 92 95 99 97 98 95 94 96 98 97 94 92 75 72 73
89 92 92 96 98 98 100 99 100 99 99 99 100 97 89 88 70 62 62 64 68 71
95 96 98 99 100 100 99 100 100 100 99 98 99 91 89 64 59 63 65 73 66 65
97 97 98 99 98 98 98 97 97 94 74 72 54 53 45 60 63 64 71 72 71 69

GFSNIL_sfc_rhum_033.txt.gz
RH
66 87 88 88 85 86 85 84 80 81 78 74 70 71 70 71 69 62 62 60 57 59
65 76 85 87 86 84 82 82 80 80 78 75 73 70 70 70 66 62 63 66 65 56
72 73 82 90 90 87 84 82 80 77 75 75 73 70 70 74 65 59 64 64 58 59
82 87 85 89 90 89 85 80 77 74 73 72 69 68 70 69 66 62 54 56 57 58
86 83 91 92 88 84 82 77 77 76 73 68 66 67 64 60 57 58 62 70 78 80
87 88 89 87 80 77 74 73 70 68 67 63 58 54 50 54 64 69 75 81 81 78
86 87 83 75 73 73 72 72 66 60 57 59 56 58 64 72 76 80 81 83 84 83
77 74 71 74 73 70 69 66 64 64 70 74 75 75 80 81 82 88 91 90 91 92
69 70 77 74 77 79 77 77 77 78 80 86 86 87 86 83 84 83 89 94 96 97
75 79 82 80 84 87 90 91 92 92 91 91 89 88 88 89 93 97 98 98 97 92
85 87 87 89 91 93 93 95 98 100 98 98 95 92 93 96 98 98 97 95 92 90
88 91 94 96 98 96 99 98 100 100 100 100 100 98 97 91 89 90 89 86 70 64
96 97 98 99 99 99 98 100 98 100 100 100 99 84 86 80 53 59 56 58 56 61
99 99 99 100 99 100 99 98 98 97 95 92 84 84 68 59 52 52 59 59 57 55

GFSNIL_sfc_rhum_036.txt.gz
RH
40 40 46 62 63 60 55 63 71 76 76 72 68 68 70 72 74 68 69 61 57 54
43 46 47 50 59 68 58 62 63 70 73 77 75 72 70 75 74 74 71 67 63 58
53 53 55 55 63 74 65 65 72 70 72 76 78 78 77 78 73 72 80 71 65 63
56 59 63 72 78 78 76 76 75 73 73 73 76 76 80 80 74 71 72 76 81 81
58 61 70 79 77 76 77 74 76 74 74 71 72 71 74 77 73 69 68 69 68 60
62 64 68 74 70 68 70 71 72 72 73 71 69 69 70 68 67 64 68 76 74 81
67 68 66 63 64 64 66 67 66 64 64 61 60 57 58 68 78 82 84 86 87 87
61 62 61 62 64 62 62 60 61 66 69 70 68 68 74 79 84 87 91 90 90 94
62 64 69 66 68 70 69 69 80 81 81 85 82 83 82 82 88 88 90 96 98 100
70 74 80 79 82 87 91 91 92 92 91 92 91 88 89 91 94 98 99 99 98 100
77 84 86 89 93 95 96 97 97 100 98 97 94 90 92 94 99 99 99 97 91 87
83 91 93 96 98 98 99 98 100 100 99 100 100 98 99 99 96 87 83 76 73 63
95 97 99 99 100 99 98 100 98 100 100 99 100 92 81 63 66 64 55 50 50 57
95 97 97 100 99 100 100 100 100 100 95 89 87 76 62 53 44 45 47 46 42 43

GFSNIL_sfc_rhum_039.txt.gz
RH
37 37 37 36 40 50 50 48 54 75 82 83 82 81 80 81 80 77 79 75 74 71
40 43 45 44 42 44 48 52 52 57 71 82 82 83 85 87 86 84 82 83 80 76
46 47 49 50 51 53 58 58 58 70 78 84 86 87 87 90 89 87 87 88 85 81
48 49 54 59 64 70 72 72 76 79 82 81 87 86 90 92 92 92 92 89 86 84
52 53 55 63 68 69 71 72 74 74 75 76 80 81 86 90 89 92 88 87 89 89
57 59 60 60 59 60 64 66 66 69 72 73 75 77 79 79 83 85 84 84 82 82
60 61 59 58 58 57 58 60 60 59 60 61 59 62 70 76 82 84 85 87 87 87
60 62 61 61 62 63 64 62 61 63 64 65 69 71 79 83 86 90 93 92 92 93
64 67 70 69 69 74 76 75 76 74 72 77 78 80 81 85 90 91 93 98 99 100
70 76 80 80 87 92 93 92 93 92 89 92 89 86 88 90 95 99 100 99 99 100
75 79 83 87 92 95 96 97 97 98 98 97 95 93 93 97 99 98 99 99 99 98
82 88 94 96 99 98 98 98 99 99 98 99 100 96 97 98 99 98 96 91 83 71
89 96 99 99 100 99 98 100 98 99 99 92 99 88 83 77 72 69 55 51 54 54
85 89 97 99 95 99 98 97 98 99 93 95 82 66 60 52 48 48 48 48 46 50

GFSNIL_sfc_rhum_042.txt.gz
RH
58 63 62 62 64 62 65 68 69 94 95 94 93 91 95 93 92 91 88 85 89 86
61 65 69 67 68 69 72 71 77 85 92 93 93 94 95 96 96 95 92 90 92 91
64 66 72 78 87 89 88 84 89 91 92 91 93 95 96 97 96 98 98 98 97 96
71 70 77 87 88 84 74 73 78 86 89 84 88 92 96 97 96 97 98 98 98 94
74 77 68 78 82 78 68 76 76 77 78 78 81 86 89 94 93 96 96 95 94 94
76 78 74 79 74 73 79 80 76 74 70 71 74 79 82 86 90 89 91 91 91 92
80 80 79 77 76 76 74 75 75 74 74 75 76 78 84 84 85 88 89 89 90 91
78 80 80 81 84 82 80 80 81 81 84 83 80 81 87 89 89 91 94 93 93 95
77 75 81 80 82 92 90 89 84 84 84 87 82 81 83 92 94 93 97 98 99 100
75 79 83 87 89 93 97 97 97 96 93 92 90 87 89 92 96 98 99 100 100 100
79 85 89 93 96 97 97 97 97 98 98 96 93 90 89 90 96 97 99 99 99 99
86 96 97 99 98 98 98 98 99 98 98 100 99 87 86 94 97 98 98 96 94 91
97 98 99 99 100 98 96 99 97 99 97 86 96 70 63 76 90 93 88 72 66 52
89 96 97 99 92 98 93 94 98 98 97 93 87 75 62 54 69 63 60 58 60 71

GFSNIL_sfc_rhum_045.txt.gz
RH
68 74 75 76 77 81 86 92 91 94 94 95 94 94 96 98 98 98 97 92 90 86
72 73 81 90 93 95 93 80 92 94 93 91 96 97 96 97 98 98 98 96 94 94
78 80 89 92 92 92 91 89 92 93 93 93 93 95 97 98 98 99 99 98 98 98
84 84 78 85 92 90 86 88 89 90 91 92 93 94 95 96 96 97 98 98 98 98
81 78 68 71 81 83 83 77 78 75 74 71 76 79 88 92 92 96 97 95 95 95
83 83 86 86 82 78 80 80 77 76 78 78 76 76 78 80 85 89 91 92 93 93
88 88 89 88 86 85 84 83 84 85 85 86 86 88 89 89 89 89 90 91 92 91
80 88 90 91 94 93 92 81 78 84 84 84 83 86 96 96 96 97 96 96 94 95
76 79 84 85 84 89 89 92 94 93 88 93 80 83 88 94 95 95 97 98 99 99
80 86 88 90 93 96 97 97 95 93 92 92 87 84 88 94 97 98 99 100 100 99
87 91 94 96 97 98 98 97 97 98 98 97 89 86 86 89 96 98 98 99 98 98
93 96 97 98 99 98 98 96 98 98 98 99 98 77 81 93 97 98 98 98 93 90
97 97 99 98 100 97 97 98 93 94 98 80 96 58 58 83 91 89 89 85 70 54
93 95 95 98 96 95 97 98 98 97 96 94 82 77 62 59 72 65 64 65 68 77

GFSNIL_sfc_rhum_048.txt.gz
RH
75 78 82 87 92 96 96 96 94 95 95 96 96 96 96 98 98 98 98 97 94 91
84 84 91 93 94 95 94 84 93 94 93 94 94 97 98 98 98 99 99 99 97 94
88 94 93 94 94 93 94 93 94 94 94 94 95 96 97 97 96 98 99 99 99 98
84 82 82 88 91 93 84 82 81 86 89 91 93 95 96 96 96 98 97 95 99 98
84 85 83 86 84 83 81 79 80 79 79 82 86 88 92 94 94 92 94 94 95 95
89 91 92 91 87 83 84 85 84 84 86 87 88 90 92 86 86 87 89 90 92 93
93 94 95 94 94 92 89 89 92 93 94 94 93 93 94 95 96 95 91 91 92 92
84 92 93 95 93 96 97 96 95 94 92 90 81 85 97 97 98 96 97 97 97 97
79 81 86 85 88 89 90 88 89 87 81 86 80 83 89 93 94 95 97 98 98 99
83 88 91 93 95 96 96 94 95 95 94 92 88 84 89 95 97 98 99 99 98 97
87 92 96 97 97 97 97 96 97 98 96 96 87 83 85 90 97 98 100 99 99 99
94 96 97 97 98 98 96 96 98 98 96 96 92 69 74 91 98 98 98 95 91 85
97 97 98 98 99 96 93 98 95 98 99 81 94 59 64 75 82 84 80 72 65 65
94 94 94 96 93 94 96 94 94 94 94 91 80 80 59 59 72 65 66 69 72 78